Other Public Products
Issued by NWS Charleston, SC

Current Version | Previous Version | Graphics & Text | Print | Product List | Glossary On
Versions: 1 2 3 4 5 6 7 8 9 10 11 12 13 14 15 16 17 18 19 20 21 22 23 24 25 26 27 28 29 30 31 32 33 34 35 36 37 38 39 40 41 42 43 44 45 46 47 48 49 50
315
FPUS82 KCHS 221527
OPUCHS

TEST...KCHS/KSAV Gateway Observations...TEST
National Weather Service Charleston SC
1100 AM EDT SAT JUL 22 2017

NOTE: "fair" indicates few or no clouds below 12,000 feet with no
significant weather and/or obstructions to visibility.

SCZ050-WAZ558-NCZ071-TXZ119-213-PAZ071-DCZ001-FLZ074-172-MI076-
NYZ176-178-MAZ016-IL014-TNZ027-NJZ106-GAZ044-MD014-221600-

...Gateway Observations for Charleston International...

CITY           SKY/WX    TMP DP  RH WIND       PRES   REMARKS
Chas Airport   MOSUNNY   88  73  61 VRB5      30.05S HX  95
Seattle        CLOUDY    66  53  63 S3        30.20R
Charlotte      MOSUNNY   89  74  60 VRB7      30.03S HX  98
Dallas DFW     MOSUNNY   88  73  61 SW9       29.95S HX  95
Dallas Love    MOSUNNY   89  71  55 S10       29.96S HX  95
Philladelphia  PTSUNNY   89  67  47 E7        29.89S HX  92
Wash National  CLOUDY    89  73  59 SE5       29.91S HX  97
Baltimore      CLOUDY    89  71  55 CALM      29.89S HX  95
Miami          PTSUNNY   89  76  65 VRB7      30.11R HX 100
Detroit        CLOUDY    76  72  87 S8        29.83S
Newark         PTSUNNY   88  55  32 N6        29.88S
Laguardia      MOSUNNY   84  64  50 NE9       29.88R
J F K          PTSUNNY   88  64  44 S12       29.89S
Boston Logan   PTSUNNY   82  62  50 NE5       29.86F
Ft. Lauderdale PTSUNNY   86  77  74 SE8       30.10R HX  97
Chicago O`Hare CLOUDY    75  68  78 W12       29.84R
Chicago Midway CLOUDY    77  69  76 NW7       29.83R
Houston Bush   PTSUNNY   87  76  69 SW7       30.01R HX  97
Houston Hobby  PTSUNNY   89  76  65 VRB7      30.00S HX 100
Nashville      SUNNY     92  75  57 W6        30.00S HX 103
Atlanta        SUNNY     83  74  74 SW5       30.06F

$$

GAZ044-118-TXZ119-213-NCZ071-DCZ001-MDZ014-506-PAZ021-071-NJZ106-
NYZ176-178-MAZ106-OHZ011-021-055-MIZ076-KYZ091-ILZ014-INZ047-
MNZ060-ONZ431-221600-

...Gateway Observations for Savannah International...

CITY           SKY/WX    TMP DP  RH WIND       PRES   REMARKS
Savannah Arpt  MOSUNNY   87  72  60 VRB6      30.08R HX  93
Atlanta        SUNNY     83  74  74 SW5       30.06F
Charlotte      MOSUNNY   89  74  60 VRB7      30.03S HX  98
Dallas DFW     MOSUNNY   88  73  61 SW9       29.95S HX  95
Houston Bush   PTSUNNY   87  76  69 SW7       30.01R HX  97
Wash National  CLOUDY    89  73  59 SE5       29.91S HX  97
Wash Dulles    PTSUNNY   84  72  67 CALM      29.91F
Baltimore      CLOUDY    89  71  55 CALM      29.89S HX  95
Philadelphia   PTSUNNY   89  67  47 E7        29.89S HX  92
Newark         PTSUNNY   88  55  32 N6        29.88S
Laguardia      MOSUNNY   84  64  50 NE9       29.88R
J F K          PTSUNNY   88  64  44 S12       29.89S
Boston         PTSUNNY   82  62  50 NE5       29.86F
Pittsburg      LGT RAIN  73  71  93 S8        29.90F FOG
Akron          LGT RAIN  73  68  84 SW13      29.88S
Cleveland      CLOUDY    77  73  87 SW8       29.86F
Cincinnati     CLOUDY    85  78  80 W12G18    29.93R HX  96
Columbus       CLOUDY    73  73  99 S6        29.89F
Detroit        CLOUDY    76  72  87 S8        29.83S
Chicago O`Hare CLOUDY    75  68  78 W12       29.84R
Minneapolis    MOSUNNY   79  66  64 CALM      29.85F
Indianapolis   CLOUDY    81  76  84 W12       29.91R
Toronto Canada LGT RAIN  73  63  68 SE3       29.88F

$$




USA.gov is the U.S. government's official web portal to all federal, state and local government web resources and services.